This is the latest recevied weather packets stored in our database for station/object W4ZHA. If no packets are shown the sender has not sent any weather packets the latest 1 day(s).
| Time | Temp. | Humidity | Pressure | Rain* | Wind** | Luminosity | Snow |
|---|---|---|---|---|---|---|---|
| 1778076552 | 18.33° C | 98% | 1015.1 hPa | 19.81 mm | - | 5 W/m² | - |
| 1778074732 | 18.33° C | 96% | 1014.4 hPa | 8.89 mm | - | 4 W/m² | - |
| 1778074125 | 18.33° C | 93% | 1014.1 hPa | 7.11 mm | - | 3 W/m² | - |
| 1778072006 | 18.33° C | 78% | 1013 hPa | 5.33 mm | - | 1 W/m² | - |
| 1778071401 | 18.89° C | 77% | 1013 hPa | 1.78 mm | - | 0 W/m² | - |
| 1778070797 | 18.89° C | 77% | 1012.7 hPa | 0 mm | - | 0 W/m² | - |
| 1778070494 | 18.89° C | 77% | 1012.3 hPa | 0 mm | - | 0 W/m² | - |
| 1778070191 | 18.33° C | 77% | 1012.3 hPa | 0 mm | - | 0 W/m² | - |
| 1778069889 | 18.33° C | 77% | 1012.7 hPa | 0 mm | - | 0 W/m² | - |
| 1778069283 | 18.89° C | 76% | 1012.3 hPa | 1.78 mm | - | 0 W/m² | - |
| 1778068678 | 18.89° C | 76% | 1012 hPa | 0 mm | - | 2 W/m² | - |
| 1778068376 | 18.89° C | 76% | 1012.3 hPa | 0 mm | - | 2 W/m² | - |
| 1778067771 | 18.89° C | 76% | 1012 hPa | 1.78 mm | - | 0 W/m² | - |
| 1778065652 | 18.89° C | 75% | 1012 hPa | 0 mm | - | 0 W/m² | - |
| 1778065046 | 18.89° C | 72% | 1011.6 hPa | 0 mm | - | 0 W/m² | - |
| 1778064139 | 19.44° C | 72% | 1011.6 hPa | 0 mm | - | 0 W/m² | - |
| 1778062625 | 19.44° C | 71% | 1011.3 hPa | 0 mm | - | 0 W/m² | - |
| 1778061416 | 20° C | 70% | 1011 hPa | 0 mm | - | 0 W/m² | - |
| 1778061112 | 20° C | 68% | 1010.6 hPa | 0 mm | - | 0 W/m² | - |
| 1778060206 | 20.56° C | 67% | 1010.6 hPa | 0 mm | - | 0 W/m² | - |
| 1778059600 | 20.56° C | 67% | 1011 hPa | 0 mm | - | 0 W/m² | - |
| 1778059297 | 20.56° C | 67% | 1011 hPa | 0 mm | - | 0 W/m² | - |
| 1778058995 | 20.56° C | 67% | 1011 hPa | 0 mm | - | 0 W/m² | - |
| 1778056873 | 20.56° C | 66% | 1011 hPa | 0 mm | - | 0 W/m² | - |
| 1778055964 | 20.56° C | 66% | 1010.6 hPa | 0 mm | - | 0 W/m² | - |
* Rain latest hour (hover to see other rain measurements)
** Current wind speed in m/s (hover to see current wind gust speed)